{"data":{"norad_id":59570,"intl_designator":"2024-076G","name":"STARLINK-31587","alt_names":[],"object_type":"PAYLOAD","status":"ACTIVE","operator":null,"country":"US","launch_date":"2024-04-23","launch_site_code":"AFETR","launch_vehicle":null,"mission":null,"orbit_class":"UNKNOWN","rcs_meters":null,"size_class":null,"mass_kg":null,"dimensions":null,"purposes":["comms"],"wikipedia_slug":null,"has_3d_model":false,"image_url":null,"decayed_at":null,"tle_current":{"epoch":"2026-05-24T19:38:24.887904Z","epoch_age_seconds":93890,"freshness":"FRESH","line1":"1 59570U 24076G   26144.81834361 -.00000510  00000+0 -89975-5 0  9996","line2":"2 59570  43.0043 299.2366 0001456 277.2269  82.8417 15.27586829118160","mean_motion":15.27586829,"eccentricity":0.0001456,"inclination_deg":43.0043,"raan_deg":299.2366,"arg_perigee_deg":277.2269,"mean_anomaly_deg":82.8417,"bstar":-8.9975e-6,"rev_number":11816,"period_min":94.266327298898,"perigee_km":482.02966191482,"apogee_km":484.02763335141,"semimajor_km":6861.1656476331,"source":"CELESTRAK","updated_at":"2026-05-25T13:38:18.985717Z"}}}